Theta_e
341 341 341 342 342 341 340 339 340 342 341 341 339 337 335 333 331 330 328 327 325 322
340 341 343 342 343 341 339 340 341 341 342 339 337 336 333 331 330 329 327 326 325 323
341 344 345 345 342 341 340 341 341 339 337 335 335 334 332 329 330 328 327 327 325 324
343 345 345 343 342 342 342 342 340 338 335 334 333 333 330 329 329 328 327 327 326 324
342 343 341 338 338 339 339 339 338 336 334 334 333 331 329 328 329 328 326 327 326 325
342 339 337 335 334 335 333 332 333 332 335 334 334 332 328 329 329 327 327 327 326 324
339 337 334 333 332 333 332 330 329 332 333 334 333 333 331 330 325 327 328 328 327 326
337 335 334 332 332 331 330 329 332 331 331 331 329 330 329 328 329 326 327 328 327 323
333 332 331 330 330 329 329 331 331 329 330 323 325 311 317 324 326 328 327 322 321 320
331 332 330 331 331 330 329 330 327 326 325 322 316 306 313 321 326 327 326 323 322 322
331 331 330 327 326 328 327 329 325 325 323 319 312 303 308 316 326 325 326 323 321 320
331 330 328 325 325 327 326 324 325 326 322 318 313 303 306 316 325 324 328 328 326 325
329 329 328 329 327 327 326 325 327 325 324 315 313 304 304 313 324 323 323 323 320 313
329 331 331 330 328 327 327 326 325 325 323 320 315 307 304 303 324 322 321 318 316 313
Wind_Speed
9 7 6 8 9 8 7 6 7 7 7 7 7 6 6 4 4 5 5 5 4 2
10 8 8 9 9 9 7 6 8 8 7 7 8 8 7 4 5 5 4 4 4 3
8 7 9 11 11 10 8 8 9 8 7 7 8 7 7 5 5 6 3 3 5 3
7 8 11 8 9 10 10 10 11 9 8 8 8 7 6 6 6 6 6 4 5 5
7 10 10 9 10 10 12 11 10 8 8 8 7 7 7 7 6 7 7 7 6 6
11 10 10 12 10 9 10 8 8 7 9 9 8 8 7 7 6 7 7 7 6 6
12 11 9 9 8 8 8 8 7 8 9 9 8 8 6 5 5 6 6 6 5 5
11 10 9 8 8 8 8 6 7 9 8 7 5 4 4 6 6 6 6 6 6 4
10 10 9 8 8 8 7 8 9 8 7 7 4 7 9 8 6 6 7 6 5 4
10 9 8 7 8 8 7 7 7 7 8 7 6 6 7 9 6 6 6 6 5 4
10 10 8 7 8 6 6 7 6 7 7 7 4 5 6 8 6 6 6 6 6 5
11 12 10 8 8 6 7 6 6 7 8 8 5 4 6 3 6 6 7 5 5 5
13 13 10 9 8 6 6 6 6 6 7 9 7 5 5 3 4 5 5 4 4 5
10 11 12 8 6 6 6 6 6 7 6 7 7 5 3 2 4 4 4 4 3 3
Wind_Direction
164 180 186 171 161 157 165 161 153 155 160 157 140 131 130 133 158 162 172 181 161 161
165 164 175 164 158 155 150 159 150 153 149 153 135 137 138 148 162 160 166 179 155 144
161 162 160 157 158 160 153 151 143 142 145 144 132 139 142 151 168 164 171 157 152 152
161 160 161 148 148 155 150 146 147 147 141 136 136 146 148 172 174 170 168 162 177 180
138 137 134 122 121 133 136 143 143 142 145 145 149 155 164 179 183 169 172 180 178 183
134 125 120 123 124 126 131 137 140 134 145 144 151 155 184 185 207 173 171 173 174 184
129 121 116 126 132 127 123 131 142 140 143 148 156 168 189 174 170 143 154 162 168 186
123 120 129 133 122 117 126 142 121 126 125 138 147 155 196 156 134 137 135 105 103 102
125 122 123 121 121 121 128 111 107 112 127 118 104 102 124 122 136 132 126 119 104 116
129 130 130 129 128 124 121 110 123 123 119 116 111 102 99 121 133 140 138 135 135 133
140 132 123 121 117 119 124 136 135 125 119 112 102 120 99 126 131 134 130 144 145 140
144 136 135 132 134 125 113 116 121 130 124 123 127 111 85 114 125 131 131 131 117 130
140 142 147 144 130 128 133 139 133 134 131 133 136 124 88 67 135 133 124 110 92 125
123 126 127 125 125 128 133 128 132 124 125 126 133 120 101 69 138 151 132 129 122 107